Watertown, NY
on Thursday, December 7, 2017

Thursday
       
Previous Day Next Day
Daily Summary
 ActualAverageRecord
Temperature
Mean Temperature °F °C 30°F -1°C  
Max Temperature 36°F 2°C 38°F 3°C 68°F 20°C (1998)
Min Temperature 30°F -1°C 22°F -6°C -16°F -26°C (2000)
Degree Days
Heating Degree Days 32 35  
Month to date heating degree days 190 238  
Since 1 July heating degree days 1549 1837  
Cooling Degree Days 0 0  
Month to date cooling degree days 0 0  
Year to date cooling degree days 389 362  
Moisture
Dew Point 28°F -2°C   
Average Humidity 74    
Maximum Humidity 92    
Minimum Humidity 56    
Precipitation
Precipitation 0.05 in / 1.27 cm 0.11 in / 2.79 cm 1.53 in / 3.89 cm (1959)
Month to date precipitation 0.69 0.77  
Year to date precipitation 47.58 33.70  
Wind
Wind Speed 17 mph / 27 km/h   
Max Wind Speed 26 mph / 42 km/h   
Max Gust Speed 36 mph / 58 km/h   
Visibility 5 miles / 8 kilometers   
Events Fog , Snow   

Key: T is trace of precipitation, MM is missing value
Source: NWS Daily Summary
Time(EST)TemperatureDew PointHumidity Pressure Visibility Wind DirectionWind SpeedGust SpeedPrecipitationEvents Conditions
12:56 AM 34.0°F 1.1°C 28.9°F -1.7°C 82% 29.84 in / 1010.5 hPa 8.0 miles / 12.9 kilometers West 16.1 mph / 25.9 km/h - N/A   Overcast
1:56 AM 35.1°F 1.7°C 27.0°F -2.8°C 72% 29.86 in / 1010.9 hPa 10.0 miles / 16.1 kilometers West 15.0 mph / 24.1 km/h - 0.00 in / 0.0 cm   Overcast
2:56 AM 35.1°F 1.7°C 25.0°F -3.9°C 67% 29.87 in / 1011.4 hPa 10.0 miles / 16.1 kilometers West 20.7 mph / 33.3 km/h 28.8 mph / 46.3 km/h 0.00 in / 0.0 cm   Overcast
3:56 AM 34.0°F 1.1°C 24.1°F -4.4°C 67% 29.87 in / 1011.5 hPa 10.0 miles / 16.1 kilometers West 23.0 mph / 37.0 km/h 29.9 mph / 48.2 km/h N/A   Overcast
4:56 AM 34.0°F 1.1°C 23.0°F -5.0°C 64% 29.87 in / 1011.3 hPa 10.0 miles / 16.1 kilometers West 20.7 mph / 33.3 km/h 33.4 mph / 53.7 km/h N/A   Overcast
5:56 AM 34.0°F 1.1°C 23.0°F -5.0°C 64% 29.88 in / 1011.8 hPa 10.0 miles / 16.1 kilometers West 21.9 mph / 35.2 km/h 28.8 mph / 46.3 km/h N/A   Overcast
6:56 AM 34.0°F 1.1°C 19.9°F -6.7°C 56% 29.90 in / 1012.3 hPa 10.0 miles / 16.1 kilometers West 23.0 mph / 37.0 km/h 33.4 mph / 53.7 km/h N/A   Overcast
7:56 AM 33.1°F 0.6°C 19.9°F -6.7°C 59% 29.89 in / 1012.2 hPa 10.0 miles / 16.1 kilometers West 18.4 mph / 29.6 km/h 27.6 mph / 44.4 km/h N/A   Overcast
8:56 AM 34.0°F 1.1°C 23.0°F -5.0°C 64% 29.90 in / 1012.5 hPa 10.0 miles / 16.1 kilometers West 15.0 mph / 24.1 km/h - N/A   Overcast
9:56 AM 35.1°F 1.7°C 24.1°F -4.4°C 64% 29.90 in / 1012.5 hPa 10.0 miles / 16.1 kilometers West 11.5 mph / 18.5 km/h 23.0 mph / 37.0 km/h N/A   Overcast
10:56 AM 35.1°F 1.7°C 24.1°F -4.4°C 64% 29.90 in / 1012.5 hPa 10.0 miles / 16.1 kilometers West 16.1 mph / 25.9 km/h 25.3 mph / 40.7 km/h N/A   Overcast
11:56 AM 35.1°F 1.7°C 26.1°F -3.3°C 70% 29.88 in / 1011.6 hPa 10.0 miles / 16.1 kilometers WSW 15.0 mph / 24.1 km/h 23.0 mph / 37.0 km/h N/A   Overcast
12:08 PM 34.0°F 1.1°C 28.0°F -2.2°C 79% 29.86 in / 1011.1 hPa 4.0 miles / 6.4 kilometers SW 10.4 mph / 16.7 km/h 21.9 mph / 35.2 km/h 0.00 in / 0.0 cm Snow Light Snow
12:11 PM 33.1°F 0.6°C 30.0°F -1.1°C 89% 29.86 in / 1011.1 hPa 1.8 miles / 2.8 kilometers SW 11.5 mph / 18.5 km/h - 0.00 in / 0.0 cm Snow Light Snow
12:17 PM 33.1°F 0.6°C 30.9°F -0.6°C 92% 29.86 in / 1011.1 hPa 0.8 miles / 1.2 kilometers SSW 12.7 mph / 20.4 km/h 18.4 mph / 29.6 km/h 0.00 in / 0.0 cm Snow Light Snow
12:27 PM 32.0°F 0.0°C 30.9°F -0.6°C 96% 29.86 in / 1011.1 hPa 0.2 miles / 0.4 kilometers WSW 12.7 mph / 20.4 km/h 24.2 mph / 38.9 km/h 0.02 in / 0.5 cm Fog , Snow Snow
12:34 PM 32.0°F 0.0°C 32.0°F 0.0°C 100% 29.86 in / 1011.1 hPa 0.2 miles / 0.4 kilometers West 15.0 mph / 24.1 km/h 18.4 mph / 29.6 km/h 0.02 in / 0.5 cm Fog , Snow Light Snow
12:43 PM 32.0°F 0.0°C 30.9°F -0.6°C 96% 29.85 in / 1010.7 hPa 0.5 miles / 0.8 kilometers West 11.5 mph / 18.5 km/h - 0.02 in / 0.5 cm Fog , Snow Light Snow
12:48 PM 32.0°F 0.0°C 30.9°F -0.6°C 96% 29.85 in / 1010.7 hPa 2.0 miles / 3.2 kilometers West 10.4 mph / 16.7 km/h - 0.02 in / 0.5 cm   Overcast
12:56 PM 32.0°F 0.0°C 30.9°F -0.6°C 96% 29.86 in / 1011.2 hPa 6.0 miles / 9.7 kilometers West 10.4 mph / 16.7 km/h - 0.02 in / 0.5 cm   Overcast
1:24 PM 32.0°F 0.0°C 30.0°F -1.1°C 92% 29.84 in / 1010.4 hPa 2.5 miles / 4.0 kilometers West 13.8 mph / 22.2 km/h - 0.00 in / 0.0 cm Snow Light Snow
1:29 PM 32.0°F 0.0°C 30.0°F -1.1°C 92% 29.84 in / 1010.4 hPa 0.8 miles / 1.2 kilometers West 16.1 mph / 25.9 km/h 20.7 mph / 33.3 km/h 0.00 in / 0.0 cm Snow Light Snow
1:32 PM 32.0°F 0.0°C 30.0°F -1.1°C 92% 29.84 in / 1010.4 hPa 0.2 miles / 0.4 kilometers West 17.3 mph / 27.8 km/h 26.5 mph / 42.6 km/h 0.00 in / 0.0 cm Fog , Snow Heavy Snow
1:47 PM 30.9°F -0.6°C 30.9°F -0.6°C 100% 29.84 in / 1010.4 hPa 0.5 miles / 0.8 kilometers WSW 9.2 mph / 14.8 km/h 19.6 mph / 31.5 km/h 0.01 in / 0.3 cm Fog , Snow Snow
1:56 PM 32.0°F 0.0°C 30.9°F -0.6°C 96% 29.85 in / 1010.6 hPa 0.5 miles / 0.8 kilometers WSW 12.7 mph / 20.4 km/h 19.6 mph / 31.5 km/h 0.01 in / 0.3 cm Fog , Snow Snow
1:58 PM 32.0°F 0.0°C 30.9°F -0.6°C 96% 29.83 in / 1010.0 hPa 0.2 miles / 0.4 kilometers WSW 12.7 mph / 20.4 km/h 19.6 mph / 31.5 km/h 0.00 in / 0.0 cm Fog , Snow Snow
2:17 PM 32.0°F 0.0°C 32.0°F 0.0°C 100% 29.83 in / 1010.0 hPa 1.0 miles / 1.6 kilometers WSW 8.1 mph / 13.0 km/h - 0.01 in / 0.3 cm Snow Light Snow
2:25 PM 32.0°F 0.0°C 32.0°F 0.0°C 100% 29.83 in / 1010.0 hPa 0.5 miles / 0.8 kilometers WSW 9.2 mph / 14.8 km/h - 0.01 in / 0.3 cm Fog , Snow Snow
2:33 PM 32.0°F 0.0°C 30.9°F -0.6°C 96% 29.83 in / 1010.0 hPa 0.2 miles / 0.4 kilometers SW 18.4 mph / 29.6 km/h 24.2 mph / 38.9 km/h 0.01 in / 0.3 cm Fog , Snow Light Snow
2:56 PM 32.0°F 0.0°C 30.9°F -0.6°C 96% 29.84 in / 1010.5 hPa 0.5 miles / 0.8 kilometers WSW 16.1 mph / 25.9 km/h 26.5 mph / 42.6 km/h 0.02 in / 0.5 cm Fog , Snow Light Snow
3:18 PM 32.0°F 0.0°C 30.9°F -0.6°C 96% 29.84 in / 1010.4 hPa 0.8 miles / 1.2 kilometers WSW 18.4 mph / 29.6 km/h 27.6 mph / 44.4 km/h 0.00 in / 0.0 cm Snow Light Snow
3:31 PM 32.0°F 0.0°C 30.0°F -1.1°C 92% 29.84 in / 1010.4 hPa 1.5 miles / 2.4 kilometers WSW 17.3 mph / 27.8 km/h 27.6 mph / 44.4 km/h 0.00 in / 0.0 cm Snow Light Snow
3:40 PM 32.0°F 0.0°C 30.9°F -0.6°C 96% 29.84 in / 1010.4 hPa 1.0 miles / 1.6 kilometers WSW 15.0 mph / 24.1 km/h 26.5 mph / 42.6 km/h 0.00 in / 0.0 cm Snow Light Snow
3:51 PM 32.0°F 0.0°C 30.2°F -1.0°C 93% 29.84 in / 1010.4 hPa 2.0 miles / 3.2 kilometers WSW 11.5 mph / 18.5 km/h 24.2 mph / 38.9 km/h 0.00 in / 0.0 cm Snow Light Snow
3:56 PM 32.0°F 0.0°C 30.0°F -1.1°C 92% 29.86 in / 1010.9 hPa 5.0 miles / 8.0 kilometers WSW 13.8 mph / 22.2 km/h 24.2 mph / 38.9 km/h 0.00 in / 0.0 cm   Overcast
4:23 PM 33.1°F 0.6°C 28.9°F -1.7°C 85% 29.84 in / 1010.4 hPa 2.0 miles / 3.2 kilometers West 19.6 mph / 31.5 km/h 26.5 mph / 42.6 km/h 0.00 in / 0.0 cm Snow Light Snow
4:33 PM 32.0°F 0.0°C 30.0°F -1.1°C 92% 29.84 in / 1010.4 hPa 9.0 miles / 14.5 kilometers West 15.0 mph / 24.1 km/h - 0.00 in / 0.0 cm   Mostly Cloudy
4:42 PM 32.0°F 0.0°C 28.9°F -1.7°C 88% 29.84 in / 1010.4 hPa 10.0 miles / 16.1 kilometers West 17.3 mph / 27.8 km/h 24.2 mph / 38.9 km/h 0.00 in / 0.0 cm   Mostly Cloudy
4:56 PM 33.1°F 0.6°C 28.9°F -1.7°C 85% 29.86 in / 1011.0 hPa 10.0 miles / 16.1 kilometers West 16.1 mph / 25.9 km/h 23.0 mph / 37.0 km/h 0.00 in / 0.0 cm   Overcast
5:56 PM 34.0°F 1.1°C 26.1°F -3.3°C 73% 29.87 in / 1011.3 hPa 10.0 miles / 16.1 kilometers WSW 20.7 mph / 33.3 km/h 34.5 mph / 55.6 km/h 0.00 in / 0.0 cm   Overcast
6:56 PM 34.0°F 1.1°C 23.0°F -5.0°C 64% 29.88 in / 1011.6 hPa 9.0 miles / 14.5 kilometers WSW 18.4 mph / 29.6 km/h 34.5 mph / 55.6 km/h N/A   Overcast
7:56 PM 33.1°F 0.6°C 25.0°F -3.9°C 72% 29.89 in / 1012.1 hPa 6.0 miles / 9.7 kilometers West 18.4 mph / 29.6 km/h 25.3 mph / 40.7 km/h 0.00 in / 0.0 cm Snow Light Snow
8:45 PM 30.9°F -0.6°C 26.1°F -3.3°C 82% 29.88 in / 1011.7 hPa 2.5 miles / 4.0 kilometers WSW 13.8 mph / 22.2 km/h 24.2 mph / 38.9 km/h 0.00 in / 0.0 cm Snow Light Snow
8:56 PM 30.9°F -0.6°C 26.1°F -3.3°C 82% 29.91 in / 1012.6 hPa 3.0 miles / 4.8 kilometers WSW 11.5 mph / 18.5 km/h 25.3 mph / 40.7 km/h 0.00 in / 0.0 cm Snow Light Snow
9:04 PM 30.9°F -0.6°C 27.0°F -2.8°C 85% 29.89 in / 1012.1 hPa 1.8 miles / 2.8 kilometers WSW 13.8 mph / 22.2 km/h 23.0 mph / 37.0 km/h 0.00 in / 0.0 cm Snow Light Snow
9:30 PM 30.9°F -0.6°C 28.0°F -2.2°C 89% 29.89 in / 1012.1 hPa 1.2 miles / 2.0 kilometers SW 11.5 mph / 18.5 km/h - 0.00 in / 0.0 cm Snow Light Snow
9:36 PM 30.9°F -0.6°C 28.0°F -2.2°C 89% 29.89 in / 1012.1 hPa 3.0 miles / 4.8 kilometers SW 11.5 mph / 18.5 km/h 20.7 mph / 33.3 km/h 0.00 in / 0.0 cm Snow Light Snow
9:47 PM 32.0°F 0.0°C 23.0°F -5.0°C 69% 29.89 in / 1012.1 hPa 8.0 miles / 12.9 kilometers West 16.1 mph / 25.9 km/h 23.0 mph / 37.0 km/h 0.00 in / 0.0 cm Snow Light Snow
9:56 PM 32.0°F 0.0°C 23.0°F -5.0°C 69% 29.90 in / 1012.5 hPa 10.0 miles / 16.1 kilometers West 16.1 mph / 25.9 km/h - 0.00 in / 0.0 cm   Overcast
10:56 PM 30.9°F -0.6°C 21.9°F -5.6°C 69% 29.92 in / 1013.0 hPa 10.0 miles / 16.1 kilometers West 13.8 mph / 22.2 km/h 21.9 mph / 35.2 km/h N/A   Partly Cloudy
11:56 PM 30.9°F -0.6°C 23.0°F -5.0°C 72% 29.92 in / 1013.0 hPa 10.0 miles / 16.1 kilometers West 16.1 mph / 25.9 km/h 24.2 mph / 38.9 km/h N/A   Mostly Cloudy